UAE29V OMDB-EDDF

Flight info

Callsign UAE29V
Flight time N/A
Altitude 34000
Route ANVIX L223 TARDI N629 BOTAM Y855 LAKLU Q204 NALKI G652 TOKRA DCT ALROK DCT BOSOB DCT ITRUX Y511 PMA Z712 WEJ L677 GESON Q777 RASDA DCT OTHON DCT VAXOS DCT RDS UL609 MES DCT EVIVI L863 OKANA DCT RAVAK DCT BABIT DCT SASAL DCT SUBEN T161 DEBHI DEBHI1C
Aircraft B77W/H-SDE1E2E3FGHIJ2J3J4J5M1RWXY/LB1D1

Departure

Time 2026-04-30 09:11
Airport Dubai International Airport (OMDB)

Arrival

Time N/A
Airport Frankfurt Main Airport (EDDF)
Time Latitude Longitude Altitude Speed Heading
2026-04-30 08:37 25.24370 55.36931 31 ft 0 kts 31°
2026-04-30 08:58 25.24363 55.36926 26 ft 3 kts 32°
2026-04-30 08:58 25.24346 55.36914 31 ft 3 kts 33°
2026-04-30 08:58 25.24329 55.36902 31 ft 3 kts 32°
2026-04-30 08:58 25.24314 55.36891 31 ft 3 kts 40°
2026-04-30 08:59 25.24302 55.36876 31 ft 3 kts 74°
2026-04-30 08:59 25.24301 55.36857 31 ft 3 kts 114°
2026-04-30 08:59 25.24311 55.36838 31 ft 3 kts 127°
2026-04-30 08:59 25.24320 55.36825 31 ft 1 kts 121°
2026-04-30 09:00 25.24320 55.36824 26 ft 0 kts 121°
2026-04-30 09:02 25.24318 55.36827 26 ft 2 kts 121°
2026-04-30 09:02 25.24307 55.36849 29 ft 5 kts 121°
2026-04-30 09:02 25.24282 55.36893 28 ft 8 kts 122°
2026-04-30 09:03 25.24250 55.36951 29 ft 11 kts 122°
2026-04-30 09:03 25.24201 55.37037 30 ft 14 kts 122°
2026-04-30 09:03 25.24150 55.37128 29 ft 14 kts 122°
2026-04-30 09:03 25.24100 55.37218 28 ft 14 kts 122°
2026-04-30 09:04 25.24049 55.37309 29 ft 14 kts 122°
2026-04-30 09:04 25.23997 55.37400 29 ft 14 kts 122°
2026-04-30 09:04 25.23966 55.37496 26 ft 13 kts 93°
2026-04-30 09:04 25.23995 55.37585 30 ft 13 kts 50°
2026-04-30 09:05 25.24057 55.37635 28 ft 9 kts 32°
2026-04-30 09:05 25.24084 55.37654 29 ft 3 kts 31°
2026-04-30 09:05 25.24104 55.37667 29 ft 4 kts 31°
2026-04-30 09:05 25.24135 55.37688 30 ft 6 kts 31°
2026-04-30 09:06 25.24179 55.37718 30 ft 8 kts 31°
2026-04-30 09:06 25.24231 55.37753 29 ft 10 kts 31°
2026-04-30 09:06 25.24288 55.37792 29 ft 10 kts 32°
2026-04-30 09:06 25.24345 55.37832 26 ft 10 kts 34°
2026-04-30 09:07 25.24411 55.37882 28 ft 13 kts 34°
2026-04-30 09:07 25.24487 55.37940 30 ft 13 kts 34°
2026-04-30 09:07 25.24562 55.37997 28 ft 12 kts 34°
2026-04-30 09:07 25.24603 55.38027 28 ft 4 kts 33°
2026-04-30 09:08 25.24620 55.38039 28 ft 4 kts 32°
2026-04-30 09:08 25.24661 55.38067 29 ft 8 kts 31°
2026-04-30 09:08 25.24709 55.38099 30 ft 6 kts 31°
2026-04-30 09:08 25.24748 55.38116 31 ft 4 kts 355°
2026-04-30 09:09 25.24765 55.38099 31 ft 2 kts 302°
2026-04-30 09:09 25.24765 55.38098 31 ft 0 kts 302°
2026-04-30 09:10 25.24781 55.38069 30 ft 16 kts 302°
2026-04-30 09:10 25.24943 55.37778 30 ft 78 kts 301°
2026-04-30 09:10 25.25335 55.37072 30 ft 136 kts 302°
2026-04-30 09:10 25.25918 55.36028 32 ft 181 kts 301°
2026-04-30 09:11 25.26596 55.34796 376 ft 189 kts 301°
2026-04-30 09:11 25.27262 55.33568 949 ft 185 kts 301°
2026-04-30 09:11 25.27920 55.32384 1513 ft 183 kts 303°
2026-04-30 09:11 25.28591 55.31187 2088 ft 184 kts 304°
2026-04-30 09:12 25.29201 55.29931 2557 ft 187 kts 286°
2026-04-30 09:12 25.29114 55.28494 3089 ft 192 kts 255°
2026-04-30 09:12 25.28561 55.27131 3521 ft 195 kts 251°
2026-04-30 09:12 25.27991 55.25774 3960 ft 199 kts 250°
2026-04-30 09:13 25.27402 55.24384 4489 ft 199 kts 249°
2026-04-30 09:13 25.26807 55.22987 4929 ft 201 kts 249°
2026-04-30 09:13 25.26204 55.21572 5349 ft 205 kts 248°
2026-04-30 09:13 25.25578 55.20097 5511 ft 224 kts 247°
2026-04-30 09:14 25.24895 55.18502 5849 ft 234 kts 244°
2026-04-30 09:14 25.23786 55.17142 6195 ft 247 kts 212°
2026-04-30 09:14 25.22091 55.16674 6600 ft 258 kts 181°
2026-04-30 09:14 25.20270 55.16814 6989 ft 266 kts 172°
2026-04-30 09:15 25.18549 55.17620 7430 ft 275 kts 141°
2026-04-30 09:15 25.17362 55.19301 7683 ft 290 kts 119°
2026-04-30 09:15 25.16419 55.21333 8066 ft 301 kts 119°
2026-04-30 09:15 25.15450 55.23402 8677 ft 305 kts 120°
2026-04-30 09:16 25.14458 55.25492 9277 ft 309 kts 121°
2026-04-30 09:16 25.13460 55.27582 9817 ft 314 kts 121°
2026-04-30 09:16 25.12427 55.29738 10393 ft 318 kts 121°
2026-04-30 09:16 25.11385 55.31906 11022 ft 320 kts 121°
2026-04-30 09:17 25.10363 55.34079 11693 ft 323 kts 118°
2026-04-30 09:17 25.09416 55.36364 12401 ft 327 kts 117°
2026-04-30 09:17 25.08486 55.38674 13119 ft 331 kts 117°
2026-04-30 09:17 25.07548 55.40980 13813 ft 334 kts 117°
2026-04-30 09:18 25.06597 55.43363 14362 ft 345 kts 116°
2026-04-30 09:18 25.05636 55.45866 14516 ft 369 kts 116°
2026-04-30 09:18 25.04608 55.48564 14695 ft 391 kts 116°
2026-04-30 09:18 25.03893 55.50432 14789 ft 406 kts 116°
2026-04-30 09:19 25.02387 55.54345 15254 ft 424 kts 115°
2026-04-30 09:19 25.01589 55.56329 15583 ft 429 kts 119°
2026-04-30 09:19 25.00129 55.59211 16170 ft 431 kts 124°
2026-04-30 09:19 24.97976 55.62948 17119 ft 435 kts 126°
2026-04-30 09:20 24.96902 55.64836 17586 ft 438 kts 125°
2026-04-30 09:20 24.95310 55.67722 18228 ft 442 kts 124°
2026-04-30 09:20 24.93701 55.70656 18777 ft 446 kts 127°
2026-04-30 09:20 24.91944 55.73458 19337 ft 448 kts 130°
2026-04-30 09:21 24.90058 55.76221 19881 ft 452 kts 132°
2026-04-30 09:21 24.88159 55.78972 20411 ft 457 kts 131°
2026-04-30 09:21 24.86243 55.81808 20916 ft 463 kts 131°
2026-04-30 09:21 24.84349 55.84656 21431 ft 468 kts 131°
2026-04-30 09:22 24.82414 55.87561 21966 ft 471 kts 131°
2026-04-30 09:22 24.80443 55.90483 22472 ft 475 kts 131°
2026-04-30 09:22 24.78471 55.93383 22847 ft 480 kts 133°
2026-04-30 09:22 24.76263 55.96154 23328 ft 476 kts 141°
2026-04-30 09:23 24.73831 55.98560 23749 ft 474 kts 146°
2026-04-30 09:23 24.71107 56.00536 24019 ft 463 kts 163°
2026-04-30 09:23 24.68030 56.01339 24395 ft 448 kts 184°
2026-04-30 09:23 24.64962 56.01173 24767 ft 441 kts 190°
2026-04-30 09:24 24.61917 56.00876 25038 ft 447 kts 191°
2026-04-30 09:24 24.58776 56.00546 25378 ft 451 kts 191°
2026-04-30 09:24 24.55661 56.00221 25803 ft 453 kts 190°
2026-04-30 09:24 24.52521 55.99903 26207 ft 456 kts 190°
2026-04-30 09:25 24.49332 55.99591 26597 ft 458 kts 190°
2026-04-30 09:25 24.46164 55.99288 26960 ft 461 kts 189°
2026-04-30 09:25 24.42937 55.98983 27316 ft 464 kts 189°
2026-04-30 09:25 24.39744 55.98682 27680 ft 466 kts 189°
2026-04-30 09:26 24.36488 55.98373 28024 ft 468 kts 189°
2026-04-30 09:26 24.33251 55.98064 28275 ft 472 kts 189°
2026-04-30 09:26 24.29951 55.97732 28593 ft 474 kts 189°
2026-04-30 09:26 24.26677 55.97392 28936 ft 476 kts 189°
2026-04-30 09:27 24.23376 55.97049 29248 ft 478 kts 189°
2026-04-30 09:27 24.20047 55.96704 29530 ft 480 kts 189°
2026-04-30 09:27 24.16710 55.96361 29796 ft 482 kts 189°
2026-04-30 09:27 24.13405 55.96023 30056 ft 483 kts 189°
2026-04-30 09:28 24.10034 55.95679 30368 ft 482 kts 189°
2026-04-30 09:28 24.06687 55.95338 30730 ft 480 kts 189°
2026-04-30 09:28 24.03403 55.95003 31079 ft 478 kts 189°
2026-04-30 09:28 24.00080 55.94664 31407 ft 478 kts 189°
2026-04-30 09:29 23.96765 55.94325 31627 ft 479 kts 189°
2026-04-30 09:29 23.93466 55.93986 31779 ft 483 kts 189°
2026-04-30 09:29 23.86746 55.93299 31859 ft 484 kts 189°
2026-04-30 09:30 23.80012 55.92615 32004 ft 483 kts 189°
2026-04-30 09:30 23.76706 55.92279 32409 ft 479 kts 189°
2026-04-30 09:30 23.73421 55.91946 32871 ft 475 kts 189°
2026-04-30 09:31 23.70130 55.91612 33213 ft 473 kts 189°
2026-04-30 09:31 23.66850 55.91277 33407 ft 475 kts 189°
2026-04-30 09:31 23.63575 55.90943 33649 ft 475 kts 189°
2026-04-30 09:31 23.60262 55.90606 33772 ft 476 kts 189°
2026-04-30 09:32 23.53716 55.89943 33860 ft 470 kts 188°
2026-04-30 09:32 23.47241 55.89286 33847 ft 467 kts 188°
2026-04-30 09:33 23.40790 55.88632 33829 ft 465 kts 188°
2026-04-30 09:33 23.34342 55.87980 33843 ft 465 kts 188°
2026-04-30 09:34 23.27886 55.87327 33813 ft 466 kts 188°
2026-04-30 09:34 23.21404 55.86672 33835 ft 467 kts 188°
2026-04-30 09:35 23.14947 55.86021 33837 ft 468 kts 188°
2026-04-30 09:35 23.08453 55.85366 33830 ft 469 kts 188°
2026-04-30 09:36 23.01955 55.84712 33818 ft 470 kts 188°
2026-04-30 09:36 22.95470 55.84060 33814 ft 469 kts 188°
2026-04-30 09:37 22.88971 55.83407 33817 ft 469 kts 188°
2026-04-30 09:37 22.82482 55.82756 33818 ft 469 kts 188°
2026-04-30 09:38 22.76050 55.81912 33813 ft 466 kts 195°
2026-04-30 09:38 22.69852 55.79864 33814 ft 461 kts 204°
2026-04-30 09:39 22.63915 55.77232 33818 ft 462 kts 204°
2026-04-30 09:39 22.57988 55.74641 33815 ft 462 kts 204°
2026-04-30 09:40 22.52020 55.72057 33813 ft 462 kts 204°
2026-04-30 09:40 22.46027 55.69469 33802 ft 463 kts 204°
2026-04-30 09:41 22.40067 55.66897 33803 ft 463 kts 203°
2026-04-30 09:41 22.34058 55.64305 33798 ft 462 kts 203°
2026-04-30 09:42 22.28097 55.61736 33800 ft 462 kts 203°
2026-04-30 09:42 22.22133 55.59143 33793 ft 459 kts 207°
2026-04-30 09:43 22.19463 55.57277 33792 ft 456 kts 223°
2026-04-30 09:43 22.17434 55.54720 33804 ft 456 kts 236°
2026-04-30 09:43 22.14895 55.48470 33782 ft 461 kts 259°
2026-04-30 09:44 22.14321 55.41564 33793 ft 464 kts 263°
2026-04-30 09:44 22.13857 55.34614 33799 ft 467 kts 263°
2026-04-30 09:45 22.13333 55.27626 33790 ft 470 kts 263°
2026-04-30 09:45 22.12760 55.20579 33788 ft 470 kts 262°
2026-04-30 09:46 22.12173 55.13575 33784 ft 469 kts 262°
2026-04-30 09:46 22.11581 55.06558 33787 ft 468 kts 262°
2026-04-30 09:47 22.11004 54.99729 33780 ft 467 kts 262°
2026-04-30 09:47 22.10412 54.92753 33786 ft 466 kts 262°
2026-04-30 09:48 22.09822 54.85819 33787 ft 465 kts 262°
2026-04-30 09:48 22.09225 54.78848 33795 ft 466 kts 262°
2026-04-30 09:49 22.08628 54.71906 33797 ft 466 kts 262°
2026-04-30 09:49 22.08024 54.64936 33790 ft 467 kts 262°
2026-04-30 09:50 22.07420 54.57991 33788 ft 467 kts 262°
2026-04-30 09:50 22.06809 54.50994 33800 ft 468 kts 262°
2026-04-30 09:51 22.06199 54.44048 33789 ft 468 kts 263°
2026-04-30 09:51 22.05582 54.37047 33791 ft 468 kts 263°
2026-04-30 09:52 22.04964 54.30072 33802 ft 469 kts 263°
2026-04-30 09:52 22.04340 54.23070 33797 ft 469 kts 263°
2026-04-30 09:53 22.03712 54.16057 33799 ft 469 kts 263°
2026-04-30 09:53 22.03086 54.09094 33791 ft 469 kts 263°
2026-04-30 09:54 22.02451 54.02067 33799 ft 469 kts 263°
2026-04-30 09:54 22.01829 53.95215 33805 ft 468 kts 263°
2026-04-30 09:55 22.01194 53.88251 33793 ft 468 kts 263°
2026-04-30 09:55 22.00553 53.81253 33791 ft 467 kts 263°
2026-04-30 09:56 21.99915 53.74327 33794 ft 467 kts 263°
2026-04-30 09:56 21.99268 53.67340 33799 ft 467 kts 263°
2026-04-30 09:57 21.98624 53.60404 33797 ft 467 kts 263°
2026-04-30 09:57 21.97972 53.53425 33807 ft 467 kts 263°
2026-04-30 09:58 21.97321 53.46492 33802 ft 468 kts 263°
2026-04-30 09:58 21.96663 53.39505 33792 ft 468 kts 263°
2026-04-30 09:59 21.95337 53.25526 33798 ft 468 kts 263°
2026-04-30 10:00 21.94339 53.15091 33801 ft 468 kts 263°
2026-04-30 10:01 21.93330 53.04615 33794 ft 468 kts 263°
2026-04-30 10:02 21.92331 52.94303 33794 ft 469 kts 263°
2026-04-30 10:02 21.91650 52.87312 33795 ft 469 kts 263°
2026-04-30 10:03 21.90970 52.80363 33797 ft 469 kts 263°
2026-04-30 10:03 21.90372 52.73360 33793 ft 469 kts 268°
2026-04-30 10:04 21.90728 52.66376 33803 ft 471 kts 277°
2026-04-30 10:04 21.91961 52.59441 33802 ft 471 kts 280°
2026-04-30 10:05 21.93282 52.52516 33800 ft 471 kts 279°
2026-04-30 10:05 21.94582 52.45584 33793 ft 471 kts 279°
2026-04-30 10:06 21.95852 52.38687 33805 ft 471 kts 279°
2026-04-30 10:06 21.97116 52.31762 33800 ft 471 kts 279°
2026-04-30 10:07 21.98369 52.24876 33802 ft 470 kts 279°
2026-04-30 10:07 21.99627 52.17950 33801 ft 469 kts 279°
2026-04-30 10:08 22.00875 52.11071 33797 ft 468 kts 279°
2026-04-30 10:08 22.02114 52.04218 33802 ft 468 kts 279°
2026-04-30 10:09 22.03338 51.97433 33812 ft 467 kts 279°
2026-04-30 10:09 22.04567 51.90606 33807 ft 466 kts 279°
2026-04-30 10:10 22.05799 51.83743 33790 ft 464 kts 279°
2026-04-30 10:10 22.07016 51.76950 33809 ft 463 kts 279°
2026-04-30 10:11 22.08229 51.70157 33803 ft 462 kts 278°
2026-04-30 10:11 22.09241 51.64481 33809 ft 462 kts 278°
2026-04-30 10:12 22.10449 51.57686 33799 ft 462 kts 278°
2026-04-30 10:12 22.11652 51.50898 33805 ft 462 kts 278°
2026-04-30 10:13 22.12864 51.44052 33822 ft 463 kts 278°
2026-04-30 10:13 22.14068 51.37229 33812 ft 463 kts 278°
2026-04-30 10:14 22.15269 51.30406 33807 ft 464 kts 278°
2026-04-30 10:14 22.17069 51.20151 33815 ft 464 kts 278°
2026-04-30 10:15 22.18262 51.13326 33815 ft 464 kts 278°
2026-04-30 10:15 22.19450 51.06521 33814 ft 463 kts 278°
2026-04-30 10:16 22.20618 50.99807 33831 ft 463 kts 278°
2026-04-30 10:17 22.22399 50.89540 33829 ft 463 kts 278°
2026-04-30 10:17 22.24163 50.79337 33824 ft 463 kts 277°
2026-04-30 10:18 22.25344 50.72482 33830 ft 462 kts 277°
2026-04-30 10:19 22.27096 50.62276 33831 ft 462 kts 277°
2026-04-30 10:19 22.28263 50.55458 33830 ft 462 kts 277°
2026-04-30 10:20 22.29426 50.48641 33833 ft 462 kts 277°
2026-04-30 10:20 22.31171 50.38384 33835 ft 462 kts 277°
2026-04-30 10:21 22.32323 50.31593 33847 ft 462 kts 277°
2026-04-30 10:21 22.33480 50.24752 33839 ft 461 kts 277°
2026-04-30 10:22 22.34630 50.17937 33838 ft 460 kts 277°
2026-04-30 10:22 22.35770 50.11161 33833 ft 460 kts 277°
2026-04-30 10:23 22.36909 50.04370 33836 ft 459 kts 277°
2026-04-30 10:23 22.38021 49.97729 33834 ft 458 kts 277°
2026-04-30 10:24 22.39158 49.90915 33836 ft 458 kts 277°
2026-04-30 10:24 22.40281 49.84167 33839 ft 458 kts 277°
2026-04-30 10:25 22.41404 49.77403 33835 ft 458 kts 277°
2026-04-30 10:25 22.42530 49.70600 33835 ft 459 kts 277°
2026-04-30 10:26 22.43651 49.63812 33838 ft 459 kts 277°
2026-04-30 10:26 22.44766 49.57046 33838 ft 459 kts 277°
2026-04-30 10:27 22.45885 49.50231 33848 ft 459 kts 277°
2026-04-30 10:27 22.46996 49.43452 33838 ft 459 kts 276°
2026-04-30 10:28 22.48106 49.36656 33838 ft 458 kts 276°
2026-04-30 10:28 22.49211 49.29872 33835 ft 458 kts 276°
2026-04-30 10:29 22.50310 49.23107 33857 ft 457 kts 276°
2026-04-30 10:29 22.51402 49.16371 33842 ft 456 kts 276°
2026-04-30 10:30 22.52489 49.09644 33837 ft 454 kts 276°
2026-04-30 10:30 22.53574 49.02912 33839 ft 453 kts 276°
2026-04-30 10:31 22.54630 48.96338 33842 ft 452 kts 276°
2026-04-30 10:31 22.55708 48.89609 33841 ft 453 kts 276°
2026-04-30 10:32 22.56780 48.82902 33845 ft 453 kts 276°
2026-04-30 10:32 22.57847 48.76205 33847 ft 454 kts 276°
2026-04-30 10:33 22.58921 48.69450 33858 ft 454 kts 276°
2026-04-30 10:33 22.59987 48.62727 33849 ft 454 kts 276°
2026-04-30 10:34 22.61047 48.56023 33846 ft 453 kts 276°
2026-04-30 10:34 22.62107 48.49300 33846 ft 452 kts 276°
2026-04-30 10:35 22.63159 48.42603 33847 ft 451 kts 276°
2026-04-30 10:35 22.64207 48.35919 33852 ft 451 kts 276°
2026-04-30 10:36 22.65252 48.29235 33848 ft 451 kts 276°
2026-04-30 10:36 22.66295 48.22538 33847 ft 451 kts 276°
2026-04-30 10:37 22.67337 48.15840 33850 ft 451 kts 276°
2026-04-30 10:37 22.68374 48.09146 33848 ft 451 kts 276°
2026-04-30 10:38 22.69342 48.02461 33846 ft 449 kts 273°
2026-04-30 10:38 22.69904 47.95853 33858 ft 449 kts 272°
2026-04-30 10:39 22.70439 47.89117 33856 ft 452 kts 272°
2026-04-30 10:39 22.70988 47.82334 33858 ft 455 kts 272°
2026-04-30 10:40 22.71551 47.75490 33858 ft 456 kts 272°
2026-04-30 10:40 22.72114 47.68640 33857 ft 457 kts 272°
2026-04-30 10:41 22.72675 47.61773 33867 ft 457 kts 272°
2026-04-30 10:41 22.73228 47.54969 33862 ft 455 kts 272°
2026-04-30 10:42 22.73777 47.48166 33860 ft 453 kts 272°
2026-04-30 10:42 22.74324 47.41358 33868 ft 451 kts 272°
2026-04-30 10:43 22.74863 47.34607 33868 ft 450 kts 272°
2026-04-30 10:43 22.75398 47.27868 33878 ft 450 kts 272°
2026-04-30 10:44 22.75930 47.21136 33877 ft 450 kts 272°
2026-04-30 10:44 22.76467 47.14344 33877 ft 451 kts 272°
2026-04-30 10:45 22.77007 47.07593 33881 ft 452 kts 272°
2026-04-30 10:45 22.77551 47.00798 33891 ft 452 kts 272°
2026-04-30 10:46 22.78077 46.94157 33897 ft 452 kts 272°
2026-04-30 10:46 22.78610 46.87392 33886 ft 451 kts 272°
2026-04-30 10:47 22.79141 46.80627 33895 ft 450 kts 272°
2026-04-30 10:47 22.79668 46.73856 33895 ft 449 kts 272°
2026-04-30 10:48 22.80189 46.67129 33893 ft 449 kts 272°
2026-04-30 10:48 22.80709 46.60384 33902 ft 449 kts 272°
2026-04-30 10:49 22.81226 46.53633 33902 ft 449 kts 272°
2026-04-30 10:49 22.81742 46.46871 33920 ft 449 kts 272°
2026-04-30 10:50 22.82253 46.40132 33905 ft 450 kts 271°
2026-04-30 10:50 22.82757 46.33387 33903 ft 449 kts 271°
2026-04-30 10:51 22.83254 46.26631 33904 ft 449 kts 271°
2026-04-30 10:51 22.83748 46.19877 33899 ft 448 kts 271°
2026-04-30 10:52 22.84240 46.13143 33894 ft 449 kts 271°
2026-04-30 10:52 22.84728 46.06412 33896 ft 449 kts 271°
2026-04-30 10:53 22.85205 45.99791 33879 ft 450 kts 271°
2026-04-30 10:53 22.85690 45.93027 33892 ft 450 kts 271°
2026-04-30 10:54 22.86171 45.86277 33888 ft 450 kts 271°
2026-04-30 10:54 22.86652 45.79498 33883 ft 449 kts 271°
2026-04-30 10:55 22.87125 45.72780 33878 ft 449 kts 271°
2026-04-30 10:55 22.87599 45.66003 33883 ft 448 kts 271°
2026-04-30 10:56 22.88067 45.59273 33880 ft 448 kts 271°
2026-04-30 10:56 22.88532 45.52554 33879 ft 448 kts 271°
2026-04-30 10:57 22.88995 45.45812 33881 ft 448 kts 271°
2026-04-30 10:57 22.89454 45.39086 33881 ft 448 kts 271°
2026-04-30 10:58 22.89912 45.32340 33890 ft 448 kts 271°
2026-04-30 10:58 22.90367 45.25590 33881 ft 447 kts 271°
2026-04-30 10:59 22.90818 45.18871 33872 ft 446 kts 271°
2026-04-30 10:59 22.91264 45.12171 33877 ft 446 kts 271°
2026-04-30 11:00 22.91706 45.05499 33878 ft 445 kts 271°
2026-04-30 11:00 22.92138 44.98939 33879 ft 445 kts 271°
2026-04-30 11:01 22.92576 44.92263 33880 ft 446 kts 271°
2026-04-30 11:01 22.93012 44.85567 33879 ft 446 kts 271°
2026-04-30 11:02 22.93374 44.79966 33884 ft 446 kts 271°
2026-04-30 11:02 22.93878 44.72143 33882 ft 446 kts 271°
2026-04-30 11:03 22.94603 44.66575 33894 ft 450 kts 278°
2026-04-30 11:04 22.97340 44.56784 33895 ft 454 kts 284°
2026-04-30 11:04 22.99390 44.50265 33891 ft 454 kts 284°
2026-04-30 11:05 23.01393 44.43825 33890 ft 454 kts 284°
2026-04-30 11:05 23.03400 44.37316 33895 ft 454 kts 283°
2026-04-30 11:06 23.05390 44.30841 33896 ft 454 kts 283°
2026-04-30 11:06 23.07391 44.24320 33897 ft 454 kts 283°
2026-04-30 11:07 23.09380 44.17829 33902 ft 454 kts 283°
2026-04-30 11:07 23.11374 44.11310 33898 ft 454 kts 283°
2026-04-30 11:08 23.13348 44.04847 33903 ft 454 kts 283°
2026-04-30 11:08 23.15299 43.98446 33921 ft 453 kts 283°
2026-04-30 11:09 23.17272 43.91969 33915 ft 453 kts 283°
2026-04-30 11:09 23.19251 43.85460 33922 ft 452 kts 283°
2026-04-30 11:10 23.21208 43.79009 33935 ft 451 kts 283°
2026-04-30 11:10 23.23170 43.72530 33937 ft 450 kts 283°
2026-04-30 11:11 23.25127 43.66060 33941 ft 449 kts 283°
2026-04-30 11:11 23.27067 43.59635 33952 ft 449 kts 283°
2026-04-30 11:12 23.29013 43.53176 33951 ft 447 kts 283°
2026-04-30 11:12 23.30933 43.46787 33959 ft 446 kts 283°
2026-04-30 11:13 23.32857 43.40369 33975 ft 445 kts 283°
2026-04-30 11:13 23.34767 43.33988 33976 ft 445 kts 283°
2026-04-30 11:14 23.36683 43.27580 33970 ft 444 kts 283°
2026-04-30 11:14 23.38593 43.21175 33993 ft 444 kts 283°
2026-04-30 11:15 23.40491 43.14808 33984 ft 444 kts 283°
2026-04-30 11:15 23.42386 43.08415 33996 ft 444 kts 283°
2026-04-30 11:16 23.44282 43.01990 34004 ft 444 kts 283°
2026-04-30 11:16 23.46130 42.95721 33995 ft 444 kts 283°
2026-04-30 11:17 23.48010 42.89336 33996 ft 444 kts 283°
2026-04-30 11:17 23.49892 42.82930 33991 ft 444 kts 283°
2026-04-30 11:18 23.51766 42.76546 33990 ft 444 kts 283°
2026-04-30 11:18 23.54596 42.66948 33989 ft 443 kts 283°
2026-04-30 11:19 23.56483 42.60558 34002 ft 443 kts 283°
2026-04-30 11:19 23.58378 42.54123 33993 ft 443 kts 283°
2026-04-30 11:20 23.60250 42.47752 33991 ft 443 kts 283°
2026-04-30 11:20 23.62128 42.41353 33984 ft 443 kts 283°
2026-04-30 11:21 23.64004 42.34947 33985 ft 442 kts 283°
2026-04-30 11:21 23.65866 42.28579 33992 ft 441 kts 283°
2026-04-30 11:22 23.67708 42.22209 33999 ft 441 kts 283°
2026-04-30 11:22 23.69538 42.15842 33991 ft 441 kts 283°
2026-04-30 11:23 23.71367 42.09475 33990 ft 440 kts 283°
2026-04-30 11:24 23.74103 41.99944 33991 ft 439 kts 283°
2026-04-30 11:24 23.75908 41.93697 33998 ft 438 kts 283°
2026-04-30 11:25 23.78677 41.84185 33988 ft 437 kts 283°
2026-04-30 11:26 23.82330 41.71546 33991 ft 437 kts 283°
2026-04-30 11:26 23.84138 41.65244 33987 ft 437 kts 283°
2026-04-30 11:27 23.85961 41.58885 33989 ft 437 kts 283°
2026-04-30 11:27 23.87767 41.52574 33993 ft 437 kts 283°
2026-04-30 11:28 23.90476 41.43068 33987 ft 436 kts 283°
2026-04-30 11:29 23.92283 41.36719 33981 ft 436 kts 283°
2026-04-30 11:29 23.94978 41.27228 33987 ft 436 kts 283°
2026-04-30 11:30 23.97664 41.17735 33984 ft 435 kts 283°
2026-04-30 11:31 23.99445 41.11429 34001 ft 435 kts 283°
2026-04-30 11:31 24.01231 41.05091 33987 ft 435 kts 283°
2026-04-30 11:32 24.02977 40.98890 33981 ft 435 kts 283°
2026-04-30 11:32 24.04749 40.92582 33979 ft 435 kts 283°
2026-04-30 11:33 24.07399 40.83117 33982 ft 434 kts 283°
2026-04-30 11:33 24.09158 40.76820 33980 ft 434 kts 283°
2026-04-30 11:34 24.10924 40.70488 33978 ft 433 kts 283°
2026-04-30 11:34 24.12674 40.64203 33977 ft 433 kts 283°
2026-04-30 11:35 24.14424 40.57905 33973 ft 433 kts 283°
2026-04-30 11:35 24.16301 40.51643 33974 ft 436 kts 287°
2026-04-30 11:36 24.18970 40.45624 33984 ft 440 kts 292°
2026-04-30 11:36 24.21827 40.39725 33976 ft 440 kts 292°
2026-04-30 11:37 24.24673 40.33798 33974 ft 439 kts 292°
2026-04-30 11:37 24.27497 40.27886 33968 ft 439 kts 292°
2026-04-30 11:38 24.30310 40.21982 33973 ft 438 kts 292°
2026-04-30 11:38 24.33139 40.16040 33969 ft 438 kts 292°
2026-04-30 11:39 24.35942 40.10145 33975 ft 437 kts 292°
2026-04-30 11:39 24.38754 40.04225 33972 ft 437 kts 292°
2026-04-30 11:40 24.41521 39.98392 33977 ft 437 kts 292°
2026-04-30 11:40 24.44314 39.92494 33969 ft 436 kts 292°
2026-04-30 11:41 24.47101 39.86603 33967 ft 435 kts 292°
2026-04-30 11:41 24.49886 39.80709 33968 ft 435 kts 292°
2026-04-30 11:42 24.52720 39.74861 33966 ft 439 kts 296°
2026-04-30 11:42 24.56585 39.69580 33970 ft 447 kts 306°
2026-04-30 11:43 24.61346 39.65038 33985 ft 457 kts 315°
2026-04-30 11:43 24.66523 39.60972 33973 ft 459 kts 316°
2026-04-30 11:44 24.71717 39.56907 33975 ft 458 kts 316°
2026-04-30 11:44 24.76883 39.52809 33973 ft 458 kts 316°
2026-04-30 11:45 24.82018 39.48703 33970 ft 458 kts 316°
2026-04-30 11:45 24.87170 39.44573 33973 ft 458 kts 315°
2026-04-30 11:46 24.92318 39.40444 33973 ft 458 kts 315°
2026-04-30 11:46 24.97454 39.36322 33962 ft 457 kts 315°
2026-04-30 11:47 25.02614 39.32177 33974 ft 457 kts 315°
2026-04-30 11:47 25.07726 39.28067 33968 ft 457 kts 315°
2026-04-30 11:48 25.12870 39.23925 33954 ft 457 kts 315°
2026-04-30 11:48 25.17972 39.19799 33959 ft 454 kts 314°
2026-04-30 11:49 25.22479 39.15044 33968 ft 443 kts 304°
2026-04-30 11:49 25.26196 39.09727 33959 ft 436 kts 297°
2026-04-30 11:50 25.29484 39.04092 33962 ft 437 kts 296°
2026-04-30 11:50 25.32703 38.98515 33939 ft 437 kts 296°
2026-04-30 11:51 25.35975 38.92885 33936 ft 437 kts 296°
2026-04-30 11:51 25.39273 38.87230 33947 ft 437 kts 296°
2026-04-30 11:52 25.42561 38.81593 33931 ft 438 kts 296°
2026-04-30 11:52 25.45869 38.75913 33924 ft 438 kts 296°
2026-04-30 11:53 25.49165 38.70251 33919 ft 437 kts 296°
2026-04-30 11:53 25.52437 38.64619 33920 ft 437 kts 296°
2026-04-30 11:54 25.55734 38.58938 33901 ft 437 kts 296°
2026-04-30 11:54 25.59000 38.53303 33900 ft 437 kts 296°
2026-04-30 11:55 25.62288 38.47623 33912 ft 437 kts 296°
2026-04-30 11:55 25.65577 38.41934 33909 ft 437 kts 296°
2026-04-30 11:56 25.68841 38.36284 33917 ft 438 kts 296°
2026-04-30 11:56 25.71581 38.31534 33909 ft 439 kts 296°
2026-04-30 11:57 25.74874 38.25819 33906 ft 440 kts 296°
2026-04-30 11:57 25.78157 38.20115 33905 ft 440 kts 296°
2026-04-30 11:58 25.81452 38.14382 33892 ft 441 kts 296°
2026-04-30 11:58 25.84752 38.08636 33906 ft 440 kts 296°
2026-04-30 11:59 25.88043 38.02895 33898 ft 441 kts 296°
2026-04-30 11:59 25.91263 37.97272 33915 ft 441 kts 296°
2026-04-30 12:00 25.94569 37.91491 33917 ft 442 kts 296°
2026-04-30 12:00 25.97830 37.85739 33927 ft 440 kts 294°
2026-04-30 12:01 26.00221 37.79567 33941 ft 433 kts 284°
2026-04-30 12:01 26.01664 37.73116 33940 ft 428 kts 276°
2026-04-30 12:02 26.02520 37.66561 33927 ft 429 kts 275°
2026-04-30 12:02 26.03380 37.60024 33932 ft 429 kts 276°
2026-04-30 12:03 26.04718 37.50172 33944 ft 429 kts 275°
2026-04-30 12:04 26.05594 37.43635 33930 ft 429 kts 276°
2026-04-30 12:04 26.06467 37.37053 33914 ft 429 kts 276°
2026-04-30 12:05 26.07331 37.30523 33922 ft 428 kts 276°
2026-04-30 12:05 26.08197 37.23962 33915 ft 428 kts 276°
2026-04-30 12:06 26.09055 37.17439 33913 ft 428 kts 276°
2026-04-30 12:06 26.09915 37.10878 33903 ft 428 kts 276°
2026-04-30 12:07 26.10772 37.04322 33906 ft 428 kts 276°
2026-04-30 12:07 26.11603 36.97930 33917 ft 428 kts 276°
2026-04-30 12:08 26.12456 36.91359 33902 ft 429 kts 276°
2026-04-30 12:08 26.13301 36.84821 33891 ft 428 kts 276°
2026-04-30 12:09 26.14146 36.78254 33907 ft 428 kts 276°
2026-04-30 12:09 26.14983 36.71731 33908 ft 428 kts 276°
2026-04-30 12:10 26.15823 36.65153 33899 ft 428 kts 276°
2026-04-30 12:10 26.16662 36.58571 33898 ft 429 kts 276°
2026-04-30 12:11 26.17783 36.52097 33883 ft 431 kts 287°
2026-04-30 12:11 26.20516 36.46089 33889 ft 438 kts 298°
2026-04-30 12:12 26.24525 36.40949 33889 ft 446 kts 309°
2026-04-30 12:12 26.28913 36.36025 33920 ft 447 kts 309°
2026-04-30 12:13 26.33267 36.31095 33897 ft 447 kts 309°
2026-04-30 12:13 26.37629 36.26087 33896 ft 447 kts 308°
2026-04-30 12:14 26.41911 36.21140 33902 ft 446 kts 308°
2026-04-30 12:14 26.46215 36.16159 33899 ft 446 kts 308°
2026-04-30 12:15 26.50535 36.11157 33901 ft 445 kts 308°
2026-04-30 12:15 26.54823 36.06186 33904 ft 444 kts 308°
2026-04-30 12:16 26.59090 36.01234 33907 ft 444 kts 308°
2026-04-30 12:16 26.63288 35.96357 33906 ft 444 kts 308°
2026-04-30 12:17 26.69690 35.88908 33917 ft 444 kts 308°
2026-04-30 12:17 26.73972 35.83917 33909 ft 444 kts 308°
2026-04-30 12:18 26.78239 35.78941 33907 ft 444 kts 308°
2026-04-30 12:18 26.82492 35.73976 33903 ft 443 kts 309°
2026-04-30 12:19 26.86753 35.68996 33906 ft 443 kts 309°
2026-04-30 12:19 26.91013 35.64010 33908 ft 442 kts 309°
2026-04-30 12:20 26.95262 35.59031 33912 ft 442 kts 309°
2026-04-30 12:20 26.99480 35.54082 33908 ft 442 kts 309°
2026-04-30 12:21 27.03708 35.49115 33945 ft 442 kts 309°
2026-04-30 12:21 27.07968 35.44104 33913 ft 441 kts 309°
2026-04-30 12:22 27.12181 35.39144 33904 ft 440 kts 309°
2026-04-30 12:22 27.16398 35.34174 33907 ft 440 kts 309°
2026-04-30 12:23 27.20596 35.29218 33909 ft 439 kts 309°
2026-04-30 12:23 27.24822 35.24225 33904 ft 439 kts 309°
2026-04-30 12:24 27.29011 35.19269 33901 ft 439 kts 309°
2026-04-30 12:24 27.33212 35.14294 33893 ft 438 kts 309°
2026-04-30 12:25 27.37409 35.09318 33893 ft 438 kts 309°
2026-04-30 12:25 27.41585 35.04359 33920 ft 438 kts 309°
2026-04-30 12:26 27.45712 34.99453 33893 ft 439 kts 309°
2026-04-30 12:26 27.49892 34.94480 33887 ft 439 kts 309°
2026-04-30 12:27 27.54232 34.89632 33892 ft 441 kts 312°
2026-04-30 12:27 27.58689 34.84956 33895 ft 438 kts 313°
2026-04-30 12:28 27.63137 34.80288 33901 ft 440 kts 312°
2026-04-30 12:28 27.67601 34.75572 33900 ft 441 kts 312°
2026-04-30 12:29 27.72072 34.70830 33911 ft 442 kts 312°
2026-04-30 12:29 27.76543 34.66084 33930 ft 442 kts 312°
2026-04-30 12:30 27.81014 34.61331 33919 ft 441 kts 312°
2026-04-30 12:30 27.85472 34.56587 33912 ft 441 kts 312°
2026-04-30 12:31 27.89927 34.51841 33914 ft 440 kts 312°
2026-04-30 12:31 27.94397 34.47073 33910 ft 439 kts 312°
2026-04-30 12:32 27.98829 34.42332 33914 ft 438 kts 311°
2026-04-30 12:32 28.02825 34.37211 33917 ft 435 kts 306°
2026-04-30 12:33 28.06632 34.31900 33917 ft 436 kts 306°
2026-04-30 12:33 28.10457 34.26577 33920 ft 437 kts 306°
2026-04-30 12:34 28.14310 34.21232 33970 ft 438 kts 306°
2026-04-30 12:34 28.18148 34.15909 33965 ft 438 kts 306°
2026-04-30 12:35 28.22002 34.10556 33977 ft 438 kts 306°
2026-04-30 12:35 28.25867 34.05180 33962 ft 439 kts 306°
2026-04-30 12:36 28.29657 33.99903 33955 ft 438 kts 306°
2026-04-30 12:36 28.33478 33.94578 33984 ft 437 kts 306°
2026-04-30 12:37 28.37324 33.89206 33979 ft 437 kts 305°
2026-04-30 12:37 28.41154 33.83850 33973 ft 436 kts 305°
2026-04-30 12:38 28.44976 33.78501 33965 ft 434 kts 305°
2026-04-30 12:38 28.48750 33.73212 33929 ft 431 kts 305°
2026-04-30 12:39 28.52521 33.67920 33951 ft 430 kts 305°
2026-04-30 12:39 28.56292 33.62614 33988 ft 432 kts 305°
2026-04-30 12:40 28.60070 33.57293 33974 ft 434 kts 305°
2026-04-30 12:40 28.63872 33.51933 33967 ft 434 kts 305°
2026-04-30 12:41 28.67644 33.46620 33962 ft 433 kts 305°
2026-04-30 12:41 28.71424 33.41291 33970 ft 432 kts 305°
2026-04-30 12:42 28.75198 33.35960 33957 ft 431 kts 305°
2026-04-30 12:42 28.78961 33.30637 33957 ft 430 kts 305°
2026-04-30 12:43 28.82693 33.25351 33964 ft 430 kts 305°
2026-04-30 12:43 28.86443 33.20032 33963 ft 430 kts 305°
2026-04-30 12:44 28.90175 33.14732 33962 ft 430 kts 305°
2026-04-30 12:44 28.93929 33.09396 33957 ft 430 kts 305°
2026-04-30 12:45 28.97664 33.04078 33956 ft 431 kts 305°
2026-04-30 12:45 29.01337 32.98843 33956 ft 431 kts 305°
2026-04-30 12:46 29.05086 32.93492 33963 ft 431 kts 305°
2026-04-30 12:46 29.08836 32.88133 33962 ft 431 kts 305°
2026-04-30 12:47 29.12561 32.82803 33970 ft 430 kts 305°
2026-04-30 12:47 29.16304 32.77439 33969 ft 430 kts 305°
2026-04-30 12:48 29.20013 32.72118 33977 ft 430 kts 305°
2026-04-30 12:48 29.23748 32.66752 33978 ft 430 kts 305°
2026-04-30 12:49 29.27474 32.61393 33996 ft 430 kts 305°
2026-04-30 12:49 29.31160 32.56058 33985 ft 429 kts 305°
2026-04-30 12:50 29.34839 32.50692 34005 ft 428 kts 305°
2026-04-30 12:50 29.38519 32.45314 33992 ft 428 kts 305°
2026-04-30 12:51 29.42180 32.39963 34007 ft 428 kts 305°
2026-04-30 12:51 29.45857 32.34584 34007 ft 428 kts 305°
2026-04-30 12:52 29.49515 32.29224 34010 ft 429 kts 305°
2026-04-30 12:52 29.53197 32.23823 34015 ft 429 kts 305°
2026-04-30 12:53 29.56878 32.18414 34007 ft 429 kts 305°
2026-04-30 12:53 29.60538 32.13033 34015 ft 429 kts 305°
2026-04-30 12:54 29.64207 32.07628 34017 ft 428 kts 305°
2026-04-30 12:54 29.67869 32.02228 34022 ft 427 kts 305°
2026-04-30 12:55 29.71437 31.96958 34025 ft 427 kts 305°
2026-04-30 12:55 29.75061 31.91599 34059 ft 426 kts 305°
2026-04-30 12:56 29.78703 31.86202 34034 ft 426 kts 304°
2026-04-30 12:56 29.82236 31.80737 34022 ft 425 kts 303°
2026-04-30 12:57 29.85722 31.75288 34024 ft 424 kts 304°
2026-04-30 12:57 29.89347 31.69949 34014 ft 424 kts 313°
2026-04-30 12:58 29.94339 31.66251 34027 ft 437 kts 330°
2026-04-30 12:58 29.97246 31.65094 34009 ft 447 kts 341°
2026-04-30 12:58 30.00320 31.64498 34026 ft 451 kts 344°
2026-04-30 12:59 30.05509 31.63656 34027 ft 454 kts 345°
2026-04-30 12:59 30.11793 31.62629 34002 ft 457 kts 344°
2026-04-30 13:00 30.18042 31.61540 33981 ft 457 kts 344°
2026-04-30 13:00 30.24329 31.60412 33976 ft 456 kts 344°
2026-04-30 13:01 30.30595 31.59281 33983 ft 455 kts 343°
2026-04-30 13:01 30.36813 31.58158 33987 ft 454 kts 343°
2026-04-30 13:02 30.43056 31.57030 33977 ft 453 kts 343°
2026-04-30 13:02 30.49267 31.55907 33979 ft 452 kts 343°
2026-04-30 13:03 30.55495 31.54779 33979 ft 452 kts 343°
2026-04-30 13:03 30.61728 31.53648 33991 ft 453 kts 343°
2026-04-30 13:04 30.67923 31.52523 33989 ft 453 kts 343°
2026-04-30 13:04 30.74122 31.51397 33982 ft 452 kts 343°
2026-04-30 13:05 30.80333 31.50269 33985 ft 452 kts 343°
2026-04-30 13:06 30.89673 31.48572 33994 ft 452 kts 343°
2026-04-30 13:06 30.95851 31.47447 33993 ft 452 kts 343°
2026-04-30 13:07 31.02067 31.46314 34002 ft 452 kts 343°
2026-04-30 13:07 31.08299 31.45176 33992 ft 452 kts 343°
2026-04-30 13:08 31.14519 31.44038 34004 ft 453 kts 343°
2026-04-30 13:08 31.20720 31.42903 34010 ft 453 kts 343°
2026-04-30 13:09 31.26958 31.41758 34011 ft 453 kts 343°
2026-04-30 13:09 31.33190 31.40592 34017 ft 453 kts 343°
2026-04-30 13:10 31.39403 31.39424 34029 ft 455 kts 344°
2026-04-30 13:10 31.45676 31.38246 34028 ft 456 kts 344°
2026-04-30 13:11 31.51952 31.37068 34033 ft 457 kts 344°
2026-04-30 13:11 31.58240 31.36059 34028 ft 460 kts 347°
2026-04-30 13:12 31.64642 31.35420 34040 ft 463 kts 348°
2026-04-30 13:12 31.71058 31.34798 34035 ft 464 kts 348°
2026-04-30 13:13 31.80731 31.33807 34031 ft 465 kts 348°
2026-04-30 13:14 31.90345 31.32811 34035 ft 464 kts 348°
2026-04-30 13:14 32.00011 31.31797 34028 ft 464 kts 348°
2026-04-30 13:15 32.09609 31.30792 34038 ft 464 kts 348°
2026-04-30 13:16 32.16059 31.30119 34030 ft 464 kts 349°
2026-04-30 13:16 32.22464 31.29438 34030 ft 465 kts 348°
2026-04-30 13:17 32.32127 31.28388 34046 ft 465 kts 349°
2026-04-30 13:18 32.41797 31.27339 34030 ft 466 kts 349°
2026-04-30 13:18 32.51490 31.26287 34030 ft 466 kts 349°
2026-04-30 13:19 32.57796 31.24902 34033 ft 458 kts 339°
2026-04-30 13:19 32.63707 31.22265 34026 ft 452 kts 330°
2026-04-30 13:20 32.69309 31.18969 34029 ft 451 kts 329°
2026-04-30 13:20 32.74910 31.15635 34028 ft 451 kts 329°
2026-04-30 13:21 32.80526 31.12328 34027 ft 451 kts 329°
2026-04-30 13:22 32.88984 31.07369 34033 ft 451 kts 330°
2026-04-30 13:22 32.97387 31.02434 34027 ft 450 kts 329°
2026-04-30 13:23 33.05657 30.97563 34028 ft 449 kts 329°
2026-04-30 13:24 33.16604 30.90529 34033 ft 445 kts 326°
2026-04-30 13:25 33.27276 30.83109 34018 ft 444 kts 326°
2026-04-30 13:26 33.40624 30.73870 34033 ft 444 kts 326°
2026-04-30 13:28 33.53993 30.64590 34025 ft 444 kts 326°
2026-04-30 13:28 33.61993 30.59021 34028 ft 443 kts 326°
2026-04-30 13:29 33.72634 30.51594 34027 ft 443 kts 326°
2026-04-30 13:31 33.85907 30.42299 34021 ft 441 kts 326°
2026-04-30 13:32 33.99140 30.32998 34018 ft 442 kts 326°
2026-04-30 13:33 34.09721 30.25538 34017 ft 442 kts 326°
2026-04-30 13:34 34.17659 30.19926 34014 ft 442 kts 326°
2026-04-30 13:35 34.28238 30.12428 34017 ft 442 kts 326°
2026-04-30 13:36 34.38854 30.04880 34010 ft 442 kts 326°
2026-04-30 13:36 34.46413 29.98866 34019 ft 439 kts 318°
2026-04-30 13:37 34.52937 29.91160 34017 ft 437 kts 312°
2026-04-30 13:38 34.59314 29.83218 34014 ft 438 kts 312°
2026-04-30 13:39 34.67828 29.72666 34018 ft 439 kts 312°
2026-04-30 13:40 34.74249 29.64694 34009 ft 440 kts 312°
2026-04-30 13:40 34.78534 29.59363 34013 ft 440 kts 312°
2026-04-30 13:41 34.82809 29.54035 34016 ft 440 kts 312°
2026-04-30 13:41 34.87074 29.48711 34020 ft 440 kts 312°
2026-04-30 13:42 34.91354 29.43359 34018 ft 441 kts 311°
2026-04-30 13:42 34.97742 29.35362 34017 ft 441 kts 312°
2026-04-30 13:43 35.02419 29.30467 34012 ft 443 kts 320°
2026-04-30 13:43 35.07377 29.25995 34013 ft 444 kts 320°
2026-04-30 13:44 35.12323 29.21522 34004 ft 444 kts 320°
2026-04-30 13:44 35.17278 29.17005 34012 ft 445 kts 320°
2026-04-30 13:45 35.24704 29.10205 34005 ft 446 kts 320°
2026-04-30 13:46 35.29681 29.05637 34007 ft 446 kts 320°
2026-04-30 13:46 35.34630 29.01088 34006 ft 446 kts 320°
2026-04-30 13:47 35.39481 28.96623 34003 ft 446 kts 320°
2026-04-30 13:47 35.44458 28.92035 34008 ft 447 kts 319°
2026-04-30 13:48 35.49415 28.87456 34012 ft 447 kts 320°
2026-04-30 13:48 35.54393 28.82852 34008 ft 448 kts 320°
2026-04-30 13:49 35.59362 28.78249 34006 ft 448 kts 319°
2026-04-30 13:49 35.64360 28.73611 34005 ft 448 kts 319°
2026-04-30 13:50 35.69315 28.69007 34005 ft 448 kts 319°
2026-04-30 13:50 35.76778 28.62057 34020 ft 449 kts 319°
2026-04-30 13:51 35.81763 28.57405 34011 ft 449 kts 319°
2026-04-30 13:52 35.91260 28.48523 34006 ft 450 kts 319°
2026-04-30 13:52 35.96217 28.43876 34005 ft 450 kts 319°
2026-04-30 13:53 36.01204 28.39193 34007 ft 450 kts 319°
2026-04-30 13:53 36.06198 28.34495 33990 ft 450 kts 319°
2026-04-30 13:54 36.11175 28.29807 34005 ft 451 kts 319°
2026-04-30 13:54 36.16159 28.25103 34000 ft 452 kts 319°
2026-04-30 13:55 36.21144 28.20391 33989 ft 453 kts 319°
2026-04-30 13:55 36.26163 28.15638 33986 ft 453 kts 319°
2026-04-30 13:56 36.31084 28.10837 33955 ft 452 kts 316°
2026-04-30 13:56 36.35804 28.05679 33973 ft 451 kts 315°
2026-04-30 13:57 36.40459 28.00474 33964 ft 452 kts 315°
2026-04-30 13:57 36.45074 27.95356 33970 ft 452 kts 315°
2026-04-30 13:58 36.52136 27.87571 33975 ft 453 kts 315°
2026-04-30 13:59 36.56823 27.82404 33990 ft 453 kts 315°
2026-04-30 13:59 36.61548 27.77186 33991 ft 453 kts 315°
2026-04-30 14:00 36.66268 27.71962 33995 ft 453 kts 315°
2026-04-30 14:00 36.73300 27.64165 33991 ft 451 kts 315°
2026-04-30 14:01 36.77963 27.58982 33998 ft 451 kts 315°
2026-04-30 14:01 36.82660 27.53752 33997 ft 450 kts 315°
2026-04-30 14:02 36.87319 27.48556 34000 ft 450 kts 315°
2026-04-30 14:02 36.91982 27.43346 34002 ft 451 kts 315°
2026-04-30 14:03 36.96662 27.38108 34009 ft 451 kts 315°
2026-04-30 14:03 37.01327 27.32880 33996 ft 452 kts 315°
2026-04-30 14:04 37.06024 27.27605 33998 ft 452 kts 315°
2026-04-30 14:04 37.10686 27.22362 33992 ft 452 kts 315°
2026-04-30 14:05 37.15365 27.17089 34005 ft 451 kts 315°
2026-04-30 14:05 37.20020 27.11836 34248 ft 447 kts 314°
2026-04-30 14:06 37.22335 27.09220 34467 ft 448 kts 314°
2026-04-30 14:06 37.26949 27.03997 34898 ft 449 kts 314°
2026-04-30 14:07 37.31483 26.98856 35325 ft 449 kts 314°
2026-04-30 14:07 37.33812 26.96213 35546 ft 449 kts 314°
2026-04-30 14:07 37.36131 26.93578 35770 ft 449 kts 314°
2026-04-30 14:08 37.40756 26.88318 35932 ft 446 kts 314°
2026-04-30 14:08 37.47622 26.80491 35984 ft 446 kts 314°
2026-04-30 14:09 37.52226 26.75229 35979 ft 447 kts 314°
2026-04-30 14:10 37.59151 26.67299 35977 ft 448 kts 314°
2026-04-30 14:10 37.63739 26.62035 35979 ft 448 kts 314°
2026-04-30 14:11 37.68351 26.56734 35985 ft 447 kts 314°
2026-04-30 14:11 37.72953 26.51435 35986 ft 447 kts 314°
2026-04-30 14:12 37.77520 26.46167 35997 ft 446 kts 314°
2026-04-30 14:12 37.82122 26.40849 36009 ft 446 kts 314°
2026-04-30 14:13 37.86697 26.35553 35996 ft 446 kts 314°
2026-04-30 14:13 37.91259 26.30261 35991 ft 446 kts 314°
2026-04-30 14:14 37.95858 26.24918 35994 ft 446 kts 314°
2026-04-30 14:14 38.00415 26.19615 35991 ft 446 kts 314°
2026-04-30 14:15 38.04964 26.14311 35991 ft 446 kts 314°
2026-04-30 14:15 38.09544 26.08962 35994 ft 446 kts 313°
2026-04-30 14:16 38.14082 26.03651 36005 ft 446 kts 313°
2026-04-30 14:16 38.18552 25.98412 36002 ft 446 kts 313°
2026-04-30 14:17 38.23128 25.93052 36004 ft 447 kts 315°
2026-04-30 14:17 38.28126 25.88339 35991 ft 453 kts 325°
2026-04-30 14:18 38.33596 25.84316 35995 ft 454 kts 326°
2026-04-30 14:18 38.41828 25.78300 35993 ft 454 kts 325°
2026-04-30 14:19 38.50001 25.72252 35990 ft 454 kts 325°
2026-04-30 14:20 38.55475 25.68180 35987 ft 455 kts 325°
2026-04-30 14:20 38.63661 25.62077 35993 ft 455 kts 325°
2026-04-30 14:21 38.69117 25.58000 36003 ft 456 kts 325°
2026-04-30 14:22 38.77353 25.51834 35994 ft 456 kts 325°
2026-04-30 14:22 38.85554 25.45678 36000 ft 456 kts 325°
2026-04-30 14:23 38.96486 25.37446 36004 ft 456 kts 325°
2026-04-30 14:24 39.04665 25.31267 36007 ft 455 kts 325°
2026-04-30 14:25 39.15558 25.23012 36017 ft 454 kts 325°
2026-04-30 14:26 39.23692 25.16828 36001 ft 454 kts 325°
2026-04-30 14:27 39.31874 25.10590 36005 ft 453 kts 325°
2026-04-30 14:27 39.37283 25.06457 36005 ft 453 kts 325°
2026-04-30 14:28 39.45407 25.00235 36021 ft 453 kts 325°
2026-04-30 14:28 39.50738 24.96143 36017 ft 454 kts 325°
2026-04-30 14:29 39.60670 24.88500 36015 ft 453 kts 325°
2026-04-30 14:31 39.75102 24.77348 36015 ft 452 kts 325°
2026-04-30 14:31 39.83206 24.71062 36019 ft 451 kts 325°
2026-04-30 14:32 39.90361 24.65497 36044 ft 451 kts 324°
2026-04-30 14:33 39.95752 24.61295 36031 ft 451 kts 324°
2026-04-30 14:33 40.03829 24.54984 36026 ft 450 kts 324°
2026-04-30 14:34 40.09192 24.50785 36027 ft 450 kts 324°
2026-04-30 14:34 40.14540 24.46589 36032 ft 450 kts 324°
2026-04-30 14:35 40.22580 24.40266 36028 ft 450 kts 324°
2026-04-30 14:36 40.27952 24.36032 36037 ft 450 kts 324°
2026-04-30 14:36 40.33298 24.31811 36030 ft 450 kts 324°
2026-04-30 14:37 40.38675 24.27557 36043 ft 450 kts 324°
2026-04-30 14:37 40.44024 24.23318 36026 ft 449 kts 323°
2026-04-30 14:38 40.49338 24.19098 36033 ft 448 kts 323°
2026-04-30 14:38 40.54679 24.14849 36035 ft 447 kts 323°
2026-04-30 14:39 40.59970 24.10631 36036 ft 446 kts 323°
2026-04-30 14:39 40.65270 24.06398 36067 ft 445 kts 323°
2026-04-30 14:40 40.73194 24.00055 36036 ft 443 kts 323°
2026-04-30 14:40 40.78371 23.95901 36040 ft 442 kts 323°
2026-04-30 14:41 40.83583 23.91711 36041 ft 441 kts 323°
2026-04-30 14:41 40.88820 23.87494 36070 ft 440 kts 322°
2026-04-30 14:42 40.94031 23.83288 36043 ft 439 kts 322°
2026-04-30 14:42 40.99253 23.79067 36038 ft 438 kts 322°
2026-04-30 14:43 41.04438 23.74867 36032 ft 437 kts 322°
2026-04-30 14:43 41.09612 23.70668 36038 ft 437 kts 322°
2026-04-30 14:44 41.14828 23.66427 36048 ft 438 kts 322°
2026-04-30 14:44 41.20002 23.62212 36043 ft 440 kts 322°
2026-04-30 14:45 41.25247 23.57932 36050 ft 440 kts 322°
2026-04-30 14:45 41.30465 23.53666 36048 ft 441 kts 322°
2026-04-30 14:46 41.35667 23.49405 36044 ft 441 kts 322°
2026-04-30 14:46 41.40938 23.45161 36062 ft 445 kts 325°
2026-04-30 14:47 41.46477 23.41493 36069 ft 447 kts 327°
2026-04-30 14:47 41.52063 23.37856 36071 ft 446 kts 327°
2026-04-30 14:48 41.57645 23.34207 36093 ft 447 kts 327°
2026-04-30 14:48 41.63232 23.30548 36103 ft 447 kts 327°
2026-04-30 14:49 41.68829 23.26878 36112 ft 448 kts 327°
2026-04-30 14:49 41.74436 23.23194 36132 ft 448 kts 327°
2026-04-30 14:50 41.82813 23.17677 36194 ft 447 kts 327°
2026-04-30 14:51 41.91201 23.12136 36166 ft 448 kts 327°
2026-04-30 14:52 41.99574 23.06590 36185 ft 447 kts 327°
2026-04-30 14:52 42.07886 23.01067 36195 ft 445 kts 327°
2026-04-30 14:53 42.16097 22.95595 36217 ft 444 kts 326°
2026-04-30 14:54 42.27183 22.88178 36238 ft 445 kts 326°
2026-04-30 14:55 42.30311 22.86080 36215 ft 446 kts 326°
2026-04-30 14:56 42.40204 22.79431 36226 ft 449 kts 326°
2026-04-30 14:57 42.48579 22.73785 36233 ft 450 kts 326°
2026-04-30 14:58 42.59814 22.66183 36232 ft 451 kts 327°
2026-04-30 14:58 42.68240 22.60462 36233 ft 452 kts 327°
2026-04-30 15:00 42.82374 22.50822 36243 ft 455 kts 327°
2026-04-30 15:01 42.90472 22.43460 36241 ft 448 kts 318°